Jackson, MN

8:53 PM CST on November 16, 2019 (GMT -0600)
Jackson Municipal

Weather History for KMJQ - August, 2019

Change the Weather History Date:

Thursday, August 29, 2019

  Actual Average Record
Temperature  
Mean Temperature 62 °F -  
Max Temperature 71 °F 76 °F 89 °F (2012)
Min Temperature 53 °F 56 °F 42 °F (2008)
Degree Days  
Heating Degree Days 3    
Growing Degree Days 12 (Base 50)    
Moisture  
Dew Point 52 °F    
Average Humidity 70    
Maximum Humidity 94    
Minimum Humidity 38    
Precipitation  
Precipitation 0.00 in - - ()
Sea Level Pressure  
Sea Level Pressure 29.95 in    
Wind  
Wind Speed 8 mph (WNW)    
Max Wind Speed 25 mph    
Max Gust Speed 33 mph    
Visibility 10 miles    
Events      
Averages and records for this station are not official NWS values.
T = Trace of Precipitation, MM = Missing Value Source: NWS Daily Summary

Daily Weather History Graph

Daily Weather History Graph

Search for Another Location

Airport or City:

Astronomy

Aug. 29, 2019 Rise Set
Actual Time 6:40 AM CDT 8:00 PM CDT
Civil Twilight 6:10 AM CDT 8:30 PM CDT
Nautical Twilight 5:34 AM CDT 9:06 PM CDT
Astronomical Twilight 4:56 AM CDT 9:44 PM CDT
Moon 5:22 AM CDT (8/29) 8:00 PM CDT (8/29)
Length of Visible Light 14h 20m
Length of Day
13h 20m
Waning Crescent, 1% of the Moon is Illuminated
Aug 29
Waning Crescent
Aug 30
New
Sep 5
First Quarter
Sep 13
Full
Sep 21
Last Quarter

Hourly Weather History & Observations

Time (CDT) Temp. Dew Point Humidity Pressure Visibility Wind Dir Wind Speed Gust Speed Precip Events Conditions
12:15 AM 53.6 °F 51.8 °F 94% 29.94 in 10.0 mi Calm Calm - N/A   Clear
12:16 AM 53.6 °F 50.0 °F 88% 29.94 in 10.0 mi Calm Calm - N/A   Clear
12:35 AM 53.6 °F 50.0 °F 88% 29.93 in 10.0 mi South 3.5 mph - N/A   Clear
12:55 AM 53.6 °F 50.0 °F 88% 29.93 in 10.0 mi South 5.8 mph - N/A   Clear
1:15 AM 53.6 °F 50.0 °F 88% 29.92 in 10.0 mi South 4.6 mph - N/A   Clear
1:16 AM 53.6 °F 50.0 °F 88% 29.92 in 10.0 mi South 5.8 mph - N/A   Clear
1:35 AM 53.6 °F 50.0 °F 88% 29.92 in 10.0 mi South 5.8 mph - N/A   Clear
1:55 AM 53.6 °F 50.0 °F 88% 29.91 in 10.0 mi South 6.9 mph - N/A   Clear
2:15 AM 53.6 °F 50.0 °F 88% 29.91 in 10.0 mi South 6.9 mph - N/A   Clear
2:16 AM 53.6 °F 50.0 °F 88% 29.90 in 10.0 mi South 6.9 mph - N/A   Clear
2:35 AM 53.6 °F 50.0 °F 88% 29.90 in 10.0 mi South 6.9 mph - N/A   Clear
2:55 AM 53.6 °F 50.0 °F 88% 29.89 in 10.0 mi South 6.9 mph - N/A   Clear
3:15 AM 53.6 °F 50.0 °F 88% 29.88 in 10.0 mi South 5.8 mph - N/A   Clear
3:35 AM 53.6 °F 50.0 °F 88% 29.88 in 10.0 mi South 6.9 mph - N/A   Clear
3:55 AM 53.6 °F 51.8 °F 94% 29.87 in 10.0 mi South 5.8 mph - N/A   Clear
4:15 AM 55.4 °F 51.8 °F 88% 29.86 in 10.0 mi South 8.1 mph - N/A   Clear
4:35 AM 55.4 °F 51.8 °F 88% 29.85 in 10.0 mi South 6.9 mph - N/A   Clear
4:55 AM 57.2 °F 53.6 °F 88% 29.84 in 10.0 mi South 5.8 mph - N/A   Clear
5:15 AM 57.2 °F 53.6 °F 88% 29.84 in 10.0 mi South 6.9 mph - N/A   Clear
5:35 AM 57.2 °F 53.6 °F 88% 29.83 in 10.0 mi South 8.1 mph - N/A   Clear
5:55 AM 59.0 °F 53.6 °F 82% 29.83 in 10.0 mi South 6.9 mph - N/A   Clear
6:15 AM 59.0 °F 55.4 °F 88% 29.83 in 10.0 mi South 8.1 mph - N/A   Clear
6:35 AM 60.8 °F 55.4 °F 82% 29.83 in 10.0 mi SSW 8.1 mph - N/A   Clear
6:55 AM 60.8 °F 57.2 °F 88% 29.83 in 10.0 mi SSW 8.1 mph - N/A   Clear
7:15 AM 62.6 °F 59.0 °F 88% 29.83 in 10.0 mi SSW 8.1 mph - N/A   Clear
7:35 AM 64.4 °F 59.0 °F 83% 29.83 in 10.0 mi SW 9.2 mph - N/A   Clear
7:55 AM 64.4 °F 59.0 °F 83% 29.83 in 10.0 mi SW 11.5 mph - N/A   Clear
8:15 AM 64.4 °F 59.0 °F 83% 29.84 in 10.0 mi WSW 9.2 mph - N/A   Clear
8:35 AM 64.4 °F 60.8 °F 88% 29.84 in 10.0 mi WSW 10.4 mph - N/A   Clear
8:55 AM 68.0 °F 60.8 °F 78% 29.85 in 10.0 mi West 12.7 mph 16.1 mph N/A   Clear
9:15 AM 69.8 °F 62.6 °F 78% 29.86 in 10.0 mi WNW 16.1 mph 24.2 mph N/A   Clear
9:35 AM 69.8 °F 60.8 °F 73% 29.87 in 10.0 mi NW 25.3 mph 31.1 mph N/A   Scattered Clouds
9:55 AM 69.8 °F 59.0 °F 68% 29.88 in 10.0 mi NNW 20.7 mph 28.8 mph N/A   Clear
10:15 AM 69.8 °F 53.6 °F 56% 29.90 in 10.0 mi NNW 25.3 mph 29.9 mph N/A   Clear
10:35 AM 69.8 °F 53.6 °F 56% 29.91 in 10.0 mi NNW 15.0 mph 26.5 mph N/A   Clear
10:56 AM 69.8 °F 51.8 °F 53% 29.92 in 10.0 mi NNW 19.6 mph 25.3 mph N/A   Clear
11:15 AM 69.8 °F 51.8 °F 53% 29.92 in 10.0 mi NNW 13.8 mph 29.9 mph N/A   Clear
11:35 AM 71.6 °F 48.2 °F 43% 29.93 in 10.0 mi NNW 24.2 mph 33.4 mph N/A   Clear
11:36 AM 71.6 °F 46.4 °F 41% 29.93 in 10.0 mi NW 25.3 mph 33.4 mph N/A   Clear
11:55 AM 71.6 °F 50.0 °F 46% 29.94 in 10.0 mi NNW 18.4 mph 24.2 mph N/A   Clear
12:15 PM 71.6 °F 50.0 °F 46% 29.95 in 10.0 mi NW 17.3 mph 23.0 mph N/A   Clear
12:35 PM 71.6 °F 48.2 °F 43% 29.95 in 10.0 mi NW 19.6 mph 29.9 mph N/A   Clear
12:36 PM 71.6 °F 46.4 °F 41% 29.95 in 10.0 mi NW 20.7 mph 24.2 mph N/A   Clear
12:55 PM 71.6 °F 44.6 °F 38% 29.95 in 10.0 mi NW 18.4 mph 27.6 mph N/A   Clear
1:15 PM 71.6 °F 50.0 °F 46% 29.95 in 10.0 mi NNW 16.1 mph 24.2 mph N/A   Clear
1:35 PM 71.6 °F 50.0 °F 46% 29.96 in 10.0 mi NNW 16.1 mph 25.3 mph N/A   Clear
1:55 PM 71.6 °F 50.0 °F 46% 29.96 in 10.0 mi NNW 16.1 mph 26.5 mph N/A   Clear
2:15 PM 71.6 °F 48.2 °F 43% 29.96 in 10.0 mi NNW 13.8 mph - N/A   Clear
2:35 PM 71.6 °F 50.0 °F 46% 29.96 in 10.0 mi NW 16.1 mph 21.9 mph N/A   Clear
2:55 PM 71.6 °F 48.2 °F 43% 29.97 in 10.0 mi NNW 15.0 mph 23.0 mph N/A   Clear
3:15 PM 71.6 °F 48.2 °F 43% 29.97 in 10.0 mi NW 13.8 mph 21.9 mph N/A   Clear
3:35 PM 71.6 °F 50.0 °F 46% 29.98 in 10.0 mi NNW 16.1 mph 24.2 mph N/A   Clear
3:55 PM 71.6 °F 50.0 °F 46% 29.98 in 10.0 mi NNW 11.5 mph 23.0 mph N/A   Clear
4:15 PM 71.6 °F 51.8 °F 50% 29.99 in 10.0 mi NW 12.7 mph 17.3 mph N/A   Clear
4:35 PM 69.8 °F 50.0 °F 49% 29.99 in 10.0 mi NW 10.4 mph - N/A   Clear
4:55 PM 69.8 °F 50.0 °F 49% 29.99 in 10.0 mi NNW 13.8 mph 19.6 mph N/A   Clear
4:56 PM 69.8 °F 50.0 °F 49% 30.00 in 10.0 mi NNW 13.8 mph 19.6 mph N/A   Clear
5:15 PM 69.8 °F 50.0 °F 49% 30.00 in 10.0 mi NW 12.7 mph 19.6 mph N/A   Clear
5:35 PM 69.8 °F 50.0 °F 49% 30.01 in 10.0 mi NW 10.4 mph 20.7 mph N/A   Clear
5:55 PM 69.8 °F 50.0 °F 49% 30.01 in 10.0 mi NNW 12.7 mph 19.6 mph N/A   Clear
5:56 PM 69.8 °F 50.0 °F 49% 30.01 in 10.0 mi NNW 15.0 mph 19.6 mph N/A   Clear
6:15 PM 68.0 °F 50.0 °F 52% 30.01 in 10.0 mi NW 10.4 mph - N/A   Clear
6:35 PM 68.0 °F 50.0 °F 52% 30.02 in 10.0 mi NNW 8.1 mph - N/A   Clear
6:55 PM 66.2 °F 51.8 °F 60% 30.02 in 10.0 mi NW 8.1 mph - N/A   Clear
6:56 PM 66.2 °F 51.8 °F 60% 30.02 in 10.0 mi NW 8.1 mph - N/A   Clear
7:15 PM 64.4 °F 51.8 °F 64% 30.03 in 10.0 mi NW 8.1 mph - N/A   Clear
7:35 PM 62.6 °F 51.8 °F 68% 30.03 in 10.0 mi NNW 8.1 mph - N/A   Clear
7:55 PM 60.8 °F 51.8 °F 72% 30.03 in 10.0 mi NNW 8.1 mph - N/A   Clear
7:56 PM 60.8 °F 51.8 °F 72% 30.03 in 10.0 mi NNW 8.1 mph - N/A   Clear
8:15 PM 59.0 °F 51.8 °F 77% 30.03 in 10.0 mi NNW 6.9 mph - N/A   Clear
8:35 PM 55.4 °F 51.8 °F 88% 30.04 in 10.0 mi NNW 4.6 mph - N/A   Clear
8:55 PM 57.2 °F 50.0 °F 77% 30.06 in 10.0 mi Calm Calm - N/A   Clear
9:15 PM 55.4 °F 51.8 °F 88% 30.07 in 10.0 mi Calm Calm - N/A   Clear
9:35 PM 55.4 °F 50.0 °F 82% 30.08 in 10.0 mi Calm Calm - N/A   Clear
9:55 PM 53.6 °F 50.0 °F 88% 30.09 in 10.0 mi NW 5.8 mph - N/A   Clear
10:15 PM 53.6 °F 50.0 °F 88% 30.09 in 10.0 mi NW 4.6 mph - N/A   Clear
10:35 PM 53.6 °F 50.0 °F 88% 30.09 in 10.0 mi NW 3.5 mph - N/A   Clear
10:55 PM 53.6 °F 50.0 °F 88% 30.09 in 10.0 mi NNW 8.1 mph - N/A   Clear
11:15 PM 53.6 °F 50.0 °F 88% 30.09 in 10.0 mi NW 6.9 mph - N/A   Clear
11:35 PM 53.6 °F 50.0 °F 88% 30.08 in 10.0 mi NNW 4.6 mph - N/A   Clear
11:55 PM 53.6 °F 50.0 °F 88% 30.07 in 10.0 mi NNW 3.5 mph - N/A   Clear